Regional Weather Roundup
Issued by NWS

Home | Current Version | Previous Version | Graphics & Text | Print | Product List | Glossary On
Versions: 1 2 3 4 5 6 7 8 9 10 11 12 13 14 15 16 17 18 19 20 21 22 23 24 25 26 27 28 29 30 31 32 33 34 35 36 37 38 39 40 41 42 43 44 45 46 47 48 49 50
000
ASUS44 KMEG 251410
RWRTN
TENNESSEE HOURLY STATE WEATHER ROUNDUP
NATIONAL WEATHER SERVICE MEMPHIS TN
900 AM CDT WED MAY 25 2016

TNZ002-004-019-021-049-052-054-088>092-251500-
WEST TENNESSEE

CITY           SKY/WX    TMP DP  RH WIND       PRES   REMARKS
MEMPHIS INTL   CLOUDY    74  68  81 S8        30.11R
NWS MEMPHIS      N/A     73 N/A N/A MISG        N/A
JACKSON        MOSUNNY   75  67  76 S12       30.11S
DYERSBURG      CLOUDY    72  64  78 S8        30.09S
UNION CITY     MOSUNNY   73  66  78 S8        30.09R
PARIS          SUNNY     72  64  78 S9        30.12S
LEXINGTON      SUNNY     73  63  68 S7        30.13S
$$

TNZ008-025-027-028-033-062-065-066-251500-
NORTH MIDDLE TENNESSEE

CITY           SKY/WX    TMP DP  RH WIND       PRES   REMARKS
NASHVILLE      CLOUDY    74  60  61 S3        30.17R
CLARKSVILLE    LGT RAIN  69  64  84 SW3       30.14R
SMYRNA         CLOUDY    71  61  70 S5        30.17S
COOKEVILLE     SUNNY     72  59  64 S3        30.20S
CROSSVILLE     CLOUDY    71  58  63 S5        30.26R
$$

TNZ061-075-076-078-094-096-097-251500-
SOUTH MIDDLE TENNESSEE

CITY           SKY/WX    TMP DP  RH WIND       PRES   REMARKS
FAYETTEVILLE   SUNNY     72  59  64 S6        30.21R
TULLAHOMA      MOSUNNY   68  61  77 CALM      30.22S
WINCHESTER     SUNNY     73  55  53 S6        30.22S
MCMINNVILLE    MOSUNNY   70  61  73 CALM      30.22R
COLUMBIA       CLOUDY    72  72 100 NE3       30.16R
SHELBYVILLE    PTSUNNY   73  61  64 S7        30.20S
$$

TNZ017-018-042-046-047-251500-
NORTHEAST TENNESSEE

CITY           SKY/WX    TMP DP  RH WIND       PRES   REMARKS
TRI CITIES     MOSUNNY   67  53  61 CALM      30.27R
$$

TNZ012-013-036-069-073-074-251500-
CENTRAL EAST TENNESSEE

CITY           SKY/WX    TMP DP  RH WIND       PRES   REMARKS
KNOXVILLE      PTSUNNY   71  56  58 CALM      30.24R
OAK RIDGE      CLOUDY    68  57  68 CALM      30.26R
GATLINBURG     MOSUNNY   70  54  56 CALM      30.24R
$$

TNZ083-085-099-251500-
SOUTHEAST TENNESSEE

CITY           SKY/WX    TMP DP  RH WIND       PRES   REMARKS
CHATTANOOGA    CLOUDY    71  58  63 CALM      30.24R
$$

SKY/WX REPORTED AS FAIR MEANS FEW OR NO CLOUDS BELOW
12 THOUSAND FEET.





USA.gov is the U.S. government's official web portal to all federal, state and local government web resources and services.